Buffalo, WY

7:27 AM MST on December 17, 2017 (GMT -0700)
Johnson County

Weather History for KBYG - January, 2014

Change the Weather History Date:

Tuesday, January 14, 2014

  Actual Average Record
Temperature  
Mean Temperature 26 °F 28 °F  
Max Temperature 32 °F 39 °F 59 °F (2006)
Min Temperature 19 °F 17 °F -10 °F (2005)
Degree Days  
Heating Degree Days 39 37  
Month to date heating degree days 538 524  
Since 1 July heating degree days 3336 3571  
Cooling Degree Days 0 0  
Month to date cooling degree days 0 0  
Year to date cooling degree days 0 0  
Moisture  
Dew Point 18 °F    
Average Humidity 72    
Maximum Humidity 81    
Minimum Humidity 63    
Precipitation  
Precipitation T in 0.01 in 0.07 in (2009)
Month to date precipitation 0.15 0.15  
Year to date precipitation 0.15 0.15  
Sea Level Pressure  
Sea Level Pressure 30.32 in    
Wind  
Wind Speed 13 mph (NW)    
Max Wind Speed 31 mph    
Max Gust Speed 40 mph    
Visibility 6 miles    
Events Snow    
T = Trace of Precipitation, MM = Missing Value Source: NWS Daily Summary

Daily Weather History Graph

Daily Weather History Graph

Search for Another Location

Airport or City:

Trip Planner

Search our weather history database for the weather conditions in past years. The results will help you decide how hot, cold, wet, or windy it might be!

Date:

Astronomy

Jan. 14, 2014 Rise Set
Actual Time 7:40 AM MST 4:52 PM MST
Civil Twilight 7:07 AM MST 5:24 PM MST
Nautical Twilight 6:31 AM MST 6:00 PM MST
Astronomical Twilight 5:56 AM MST 6:35 PM MST
Moon 4:01 PM MST (1/14) 6:15 AM MST (1/14)
Length of Visible Light 10h 17m
Length of Day
9h 12m
Waxing Gibbous, 98% of the Moon is Illuminated
Jan 14
Waxing Gibbous
Jan 15
Full
Jan 23
Last Quarter
Jan 30
New
Feb 6
First Quarter

Hourly Weather History & Observations

Time (MST) Temp. Windchill Dew Point Humidity Pressure Visibility Wind Dir Wind Speed Gust Speed Precip Events Conditions
12:07 AM 26.1 °F 12.0 °F 21.9 °F 84% 30.11 in 1.8 mi NNW 20.7 mph 26.5 mph 0.00 in Snow Light Snow
12:17 AM 26.1 °F 11.0 °F 21.9 °F 84% 30.12 in 1.5 mi NNW 24.2 mph 38.0 mph 0.00 in Snow Light Snow
12:30 AM 25.0 °F 10.6 °F 21.9 °F 88% 30.12 in 2.0 mi NNW 20.7 mph 32.2 mph 0.00 in Snow Light Snow
12:53 AM 25.0 °F 10.2 °F 21.9 °F 88% 30.18 in 2.0 mi NNW 21.9 mph 36.8 mph 0.00 in Snow Light Snow
1:05 AM 25.0 °F 9.5 °F 21.9 °F 88% 30.13 in 5.0 mi NNW 24.2 mph 33.4 mph 0.00 in Snow Light Snow
1:53 AM 25.0 °F 10.6 °F 19.9 °F 81% 30.22 in 4.0 mi NNW 20.7 mph 29.9 mph 0.00 in Snow Light Snow
2:10 AM 24.1 °F 7.7 °F 19.9 °F 84% 30.18 in 1.8 mi NNW 26.5 mph 38.0 mph 0.00 in Snow Light Snow
2:22 AM 25.0 °F 9.5 °F 19.9 °F 81% 30.19 in 2.5 mi NNW 24.2 mph 40.3 mph 0.00 in Snow Light Snow
2:29 AM 25.0 °F 10.2 °F 19.9 °F 81% 30.19 in 6.0 mi NNW 21.9 mph 35.7 mph 0.00 in Snow Light Snow
2:53 AM 26.1 °F 12.0 °F 18.0 °F 71% 30.24 in 9.0 mi NNW 20.7 mph 34.5 mph 0.00 in   Overcast
3:23 AM 25.0 °F 8.1 °F 19.0 °F 78% 30.22 in 1.8 mi NW 29.9 mph 38.0 mph 0.00 in Snow Light Snow
3:31 AM 25.0 °F 9.2 °F 19.0 °F 78% 30.22 in 3.0 mi NW 25.3 mph 36.8 mph 0.00 in Snow Light Snow
3:53 AM 25.0 °F 9.2 °F 19.0 °F 78% 30.26 in 10.0 mi NNW 25.3 mph 33.4 mph 0.00 in   Overcast
4:53 AM 26.1 °F 12.0 °F 17.1 °F 69% 30.30 in 10.0 mi NNW 20.7 mph 29.9 mph 0.00 in   Overcast
5:53 AM 24.1 °F 8.3 °F 19.0 °F 81% 30.33 in 5.0 mi NW 24.2 mph 36.8 mph 0.00 in Snow Light Snow
6:53 AM 25.0 °F 12.2 °F 16.0 °F 69% 30.35 in 10.0 mi NW 16.1 mph - 0.00 in   Overcast
7:53 AM 25.0 °F 12.6 °F 16.0 °F 69% 30.41 in 10.0 mi NNW 15.0 mph - N/A   Overcast
8:53 AM 26.1 °F 11.0 °F 15.1 °F 63% 30.44 in 3.0 mi NW 24.2 mph 34.5 mph 0.00 in Snow Light Snow
9:03 AM 25.0 °F 9.9 °F 16.0 °F 69% 30.33 in 4.0 mi NW 23.0 mph 32.2 mph 0.00 in Snow Light Snow
9:15 AM 25.0 °F 11.3 °F 16.0 °F 69% 30.33 in 9.0 mi NW 18.4 mph 29.9 mph 0.00 in   Overcast
9:27 AM 25.0 °F 8.1 °F 17.1 °F 72% 30.34 in 1.8 mi WNW 29.9 mph 39.1 mph 0.00 in Snow Light Snow
9:31 AM 25.0 °F 7.8 °F 17.1 °F 72% 30.34 in 0.8 mi NW 31.1 mph 39.1 mph 0.00 in Snow Light Snow
9:50 AM 24.8 °F 11.5 °F 17.6 °F 74% 30.34 in 1.2 mi NW 17.3 mph 28.8 mph 0.00 in Snow Light Snow
9:53 AM 25.0 °F 11.3 °F 18.0 °F 75% 30.46 in 1.5 mi NW 18.4 mph 28.8 mph 0.00 in Snow Light Snow
9:58 AM 25.0 °F 10.6 °F 18.0 °F 75% 30.35 in 3.0 mi NW 20.7 mph 26.5 mph 0.00 in Snow Light Snow
10:05 AM 26.1 °F 12.7 °F 17.1 °F 69% 30.35 in 9.0 mi NW 18.4 mph 28.8 mph 0.00 in   Overcast
10:49 AM 24.8 °F 11.1 °F 17.6 °F 74% 30.36 in 2.5 mi NW 18.4 mph 31.1 mph 0.00 in Snow Light Snow
10:53 AM 25.0 °F 11.3 °F 18.0 °F 75% 30.48 in 4.0 mi NW 18.4 mph 26.5 mph 0.00 in Snow Light Snow
11:32 AM 25.0 °F 10.2 °F 18.0 °F 75% 30.37 in 1.8 mi NNW 21.9 mph 35.7 mph 0.00 in Snow Light Snow
11:39 AM 25.0 °F 10.6 °F 19.0 °F 78% 30.36 in 1.8 mi NNW 20.7 mph 28.8 mph 0.00 in Snow Light Snow
11:42 AM 25.0 °F 10.9 °F 19.0 °F 78% 30.36 in 3.0 mi NNW 19.6 mph 27.6 mph 0.00 in Snow Light Snow
11:50 AM 26.6 °F 14.3 °F 17.6 °F 69% 30.36 in 9.0 mi NNW 16.1 mph 26.5 mph 0.00 in   Overcast
11:53 AM 26.1 °F 13.6 °F 18.0 °F 71% 30.48 in 7.0 mi NNW 16.1 mph 25.3 mph 0.00 in Snow Light Snow
12:53 PM 26.1 °F 12.7 °F 19.0 °F 75% 30.45 in 6.0 mi North 18.4 mph 27.6 mph 0.00 in Snow Light Snow
1:53 PM 26.1 °F 16.2 °F 19.0 °F 75% 30.48 in 10.0 mi NNW 10.4 mph - 0.00 in   Overcast
2:53 PM 26.1 °F 19.4 °F 18.0 °F 71% 30.45 in 10.0 mi West 5.8 mph - N/A   Overcast
3:53 PM 26.1 °F 20.5 °F 18.0 °F 71% 30.43 in 10.0 mi SSE 4.6 mph - N/A   Overcast
4:53 PM 26.1 °F 21.9 °F 18.0 °F 71% 30.42 in 10.0 mi ESE 3.5 mph - 0.00 in   Overcast
5:53 PM 23.0 °F 14.7 °F 18.0 °F 81% 30.41 in 10.0 mi South 6.9 mph - N/A   Mostly Cloudy
6:53 PM 24.1 °F - 17.1 °F 75% 30.38 in 10.0 mi Calm Calm - N/A   Clear
7:53 PM 21.0 °F 12.4 °F 16.0 °F 81% 30.38 in 10.0 mi SW 6.9 mph - N/A   Clear
8:53 PM 27.0 °F 21.6 °F 18.0 °F 69% 30.34 in 10.0 mi South 4.6 mph - N/A   Clear
9:53 PM 23.0 °F 17.0 °F 16.0 °F 74% 30.34 in 10.0 mi SW 4.6 mph - N/A   Clear
10:53 PM 28.0 °F 21.7 °F 17.1 °F 63% 30.30 in 10.0 mi South 5.8 mph - N/A   Scattered Clouds
11:53 PM 28.9 °F 21.1 °F 15.1 °F 56% 30.25 in 10.0 mi South 8.1 mph - N/A   Clear